DAL188 RKSI-KATL

Flight info

Callsign DAL188
Flight time N/A
Altitude 35000
Route EGOBA2H EGOBA Y697 LANAT Y51 SAMON Y142 GTC Y512 ADNAP R591 ADGOR DCT AGEDI DCT AKISU DCT ASPIN DCT AAMYY DCT SYA DCT AMOND DCT ALDOZ DCT ALUFF DCT SPY DCT AKN DCT MDO DCT YAK DCT 59N130W DCT YXJ DCT YEX DCT 52N110W 50N104W DCT MOT DCT DSM Q19 STL DCT TINGS DCT HITMN DCT NEWBB DCT IHAVE DCT MTHEW CHPPR1
Aircraft A359/H-SDE2E3GHIJ3J4J5LM1ORWXY/LB1D1

Departure

Time 2026-05-06 11:25
Airport Incheon International Airport (RKSI)

Arrival

Time N/A
Airport Hartsfield Jackson Atlanta International Airport (KATL)
Time Latitude Longitude Altitude Speed Heading
2026-05-06 11:07 37.46758 126.43774 33 ft 0 kts 357°
2026-05-06 11:08 37.46756 126.43774 33 ft 1 kts 358°
2026-05-06 11:08 37.46742 126.43775 33 ft 2 kts 357°
2026-05-06 11:08 37.46726 126.43776 33 ft 2 kts 358°
2026-05-06 11:09 37.46711 126.43777 33 ft 2 kts 358°
2026-05-06 11:09 37.46697 126.43778 33 ft 2 kts 351°
2026-05-06 11:09 37.46682 126.43782 33 ft 2 kts 340°
2026-05-06 11:09 37.46669 126.43789 33 ft 2 kts 331°
2026-05-06 11:10 37.46656 126.43800 33 ft 2 kts 322°
2026-05-06 11:10 37.46644 126.43812 33 ft 2 kts 318°
2026-05-06 11:10 37.46633 126.43824 33 ft 2 kts 320°
2026-05-06 11:10 37.46621 126.43835 33 ft 2 kts 320°
2026-05-06 11:11 37.46610 126.43848 33 ft 2 kts 320°
2026-05-06 11:11 37.46606 126.43852 33 ft 0 kts 320°
2026-05-06 11:14 37.46607 126.43851 33 ft 1 kts 320°
2026-05-06 11:14 37.46638 126.43813 33 ft 10 kts 306°
2026-05-06 11:15 37.46632 126.43722 33 ft 11 kts 237°
2026-05-06 11:15 37.46585 126.43635 33 ft 12 kts 236°
2026-05-06 11:15 37.46538 126.43548 33 ft 12 kts 236°
2026-05-06 11:15 37.46479 126.43467 33 ft 12 kts 199°
2026-05-06 11:16 37.46400 126.43505 33 ft 13 kts 144°
2026-05-06 11:16 37.46323 126.43573 33 ft 13 kts 145°
2026-05-06 11:16 37.46243 126.43642 33 ft 14 kts 145°
2026-05-06 11:16 37.46165 126.43707 33 ft 10 kts 152°
2026-05-06 11:17 37.46102 126.43690 33 ft 10 kts 222°
2026-05-06 11:17 37.46057 126.43621 33 ft 10 kts 234°
2026-05-06 11:17 37.46012 126.43542 33 ft 11 kts 234°
2026-05-06 11:17 37.45966 126.43461 33 ft 11 kts 234°
2026-05-06 11:18 37.45937 126.43370 33 ft 11 kts 284°
2026-05-06 11:18 37.45973 126.43301 33 ft 6 kts 279°
2026-05-06 11:18 37.45953 126.43244 33 ft 8 kts 232°
2026-05-06 11:18 37.45938 126.43180 33 ft 8 kts 285°
2026-05-06 11:19 37.45987 126.43122 33 ft 10 kts 324°
2026-05-06 11:19 37.46054 126.43063 33 ft 12 kts 324°
2026-05-06 11:19 37.46131 126.42993 33 ft 14 kts 324°
2026-05-06 11:19 37.46218 126.42915 33 ft 16 kts 324°
2026-05-06 11:20 37.46313 126.42831 33 ft 17 kts 324°
2026-05-06 11:20 37.46416 126.42739 33 ft 18 kts 324°
2026-05-06 11:20 37.46523 126.42644 33 ft 19 kts 324°
2026-05-06 11:20 37.46635 126.42542 33 ft 20 kts 323°
2026-05-06 11:21 37.46750 126.42439 33 ft 20 kts 326°
2026-05-06 11:21 37.46870 126.42335 33 ft 21 kts 324°
2026-05-06 11:21 37.46994 126.42223 33 ft 21 kts 324°
2026-05-06 11:21 37.47118 126.42112 33 ft 22 kts 324°
2026-05-06 11:22 37.47241 126.42003 33 ft 16 kts 324°
2026-05-06 11:22 37.47329 126.41924 33 ft 14 kts 324°
2026-05-06 11:22 37.47399 126.41853 33 ft 11 kts 300°
2026-05-06 11:22 37.47380 126.41763 33 ft 12 kts 235°
2026-05-06 11:23 37.47331 126.41675 33 ft 12 kts 235°
2026-05-06 11:23 37.47285 126.41595 33 ft 9 kts 227°
2026-05-06 11:23 37.47247 126.41589 33 ft 2 kts 148°
2026-05-06 11:23 37.47245 126.41590 33 ft 0 kts 146°
2026-05-06 11:24 37.47244 126.41591 33 ft 0 kts 146°
2026-05-06 11:24 37.47205 126.41624 33 ft 28 kts 145°
2026-05-06 11:24 37.46861 126.41928 33 ft 91 kts 144°
2026-05-06 11:25 37.46183 126.42535 34 ft 144 kts 145°
2026-05-06 11:25 37.45242 126.43373 60 ft 183 kts 147°
2026-05-06 11:25 37.44189 126.44278 589 ft 183 kts 149°
2026-05-06 11:25 37.43142 126.45129 1286 ft 177 kts 152°
2026-05-06 11:26 37.42090 126.45915 1813 ft 177 kts 155°
2026-05-06 11:26 37.41019 126.46696 2133 ft 180 kts 155°
2026-05-06 11:26 37.39896 126.47512 2403 ft 188 kts 155°
2026-05-06 11:26 37.38768 126.48278 2617 ft 196 kts 161°
2026-05-06 11:27 37.37460 126.48840 2845 ft 204 kts 168°
2026-05-06 11:27 37.36033 126.49310 3089 ft 216 kts 169°
2026-05-06 11:27 37.34536 126.49794 3347 ft 230 kts 169°
2026-05-06 11:27 37.32944 126.50318 3640 ft 244 kts 168°
2026-05-06 11:28 37.31258 126.50881 3984 ft 257 kts 168°
2026-05-06 11:28 37.29532 126.51599 4494 ft 266 kts 153°
2026-05-06 11:28 37.28183 126.53204 5114 ft 275 kts 122°
2026-05-06 11:28 37.27581 126.55481 5763 ft 280 kts 98°
2026-05-06 11:29 37.27410 126.57930 6304 ft 285 kts 95°
2026-05-06 11:29 37.27259 126.60410 6823 ft 290 kts 95°
2026-05-06 11:29 37.27162 126.62948 7390 ft 295 kts 90°
2026-05-06 11:29 37.27231 126.65545 7948 ft 298 kts 87°
2026-05-06 11:30 37.27376 126.68117 8448 ft 301 kts 86°
2026-05-06 11:30 37.27532 126.70762 8994 ft 304 kts 86°
2026-05-06 11:30 37.27686 126.73432 9500 ft 308 kts 86°
2026-05-06 11:30 37.27837 126.76122 9895 ft 311 kts 86°
2026-05-06 11:31 37.27985 126.78834 9947 ft 313 kts 86°
2026-05-06 11:31 37.28131 126.81552 9945 ft 312 kts 86°
2026-05-06 11:31 37.28274 126.84247 9985 ft 311 kts 86°
2026-05-06 11:31 37.28419 126.86973 9945 ft 313 kts 86°
2026-05-06 11:32 37.28589 126.89690 9948 ft 312 kts 83°
2026-05-06 11:32 37.28829 126.92408 9953 ft 313 kts 83°
2026-05-06 11:32 37.29079 126.95115 9961 ft 313 kts 83°
2026-05-06 11:32 37.29329 126.97818 9964 ft 311 kts 83°
2026-05-06 11:33 37.29575 127.00510 9967 ft 312 kts 83°
2026-05-06 11:33 37.29821 127.03237 9966 ft 313 kts 83°
2026-05-06 11:33 37.30067 127.05969 10115 ft 319 kts 83°
2026-05-06 11:33 37.30324 127.08824 10410 ft 331 kts 83°
2026-05-06 11:34 37.30665 127.11720 10671 ft 343 kts 78°
2026-05-06 11:34 37.31248 127.14677 10916 ft 356 kts 72°
2026-05-06 11:34 37.32029 127.17720 11186 ft 368 kts 70°
2026-05-06 11:34 37.32853 127.20792 11408 ft 380 kts 70°
2026-05-06 11:35 37.33979 127.23878 11613 ft 391 kts 54°
2026-05-06 11:35 37.35757 127.26477 11907 ft 397 kts 37°
2026-05-06 11:35 37.37976 127.28555 12162 ft 405 kts 31°
2026-05-06 11:35 37.40337 127.30572 12460 ft 414 kts 31°
2026-05-06 11:36 37.42727 127.32622 12902 ft 418 kts 31°
2026-05-06 11:36 37.45145 127.34737 13418 ft 420 kts 32°
2026-05-06 11:36 37.47385 127.37122 13799 ft 430 kts 47°
2026-05-06 11:36 37.48998 127.40276 14281 ft 435 kts 65°
2026-05-06 11:37 37.49865 127.43943 14776 ft 438 kts 77°
2026-05-06 11:37 37.50444 127.47754 15176 ft 442 kts 79°
2026-05-06 11:37 37.50997 127.51601 15549 ft 446 kts 79°
2026-05-06 11:37 37.51565 127.55426 15942 ft 450 kts 78°
2026-05-06 11:38 37.52159 127.59286 16336 ft 453 kts 78°
2026-05-06 11:38 37.52776 127.63183 16741 ft 456 kts 78°
2026-05-06 11:38 37.53402 127.67120 17130 ft 458 kts 78°
2026-05-06 11:38 37.54024 127.71046 17462 ft 462 kts 78°
2026-05-06 11:39 37.54652 127.75015 17834 ft 465 kts 78°
2026-05-06 11:39 37.55281 127.79011 18212 ft 467 kts 78°
2026-05-06 11:39 37.55917 127.83041 18575 ft 470 kts 78°
2026-05-06 11:39 37.56557 127.87110 18942 ft 472 kts 78°
2026-05-06 11:40 37.57193 127.91163 19291 ft 474 kts 78°
2026-05-06 11:40 37.57836 127.95254 19659 ft 476 kts 78°
2026-05-06 11:40 37.58476 127.99346 19988 ft 479 kts 78°
2026-05-06 11:40 37.59121 128.03471 20339 ft 480 kts 78°
2026-05-06 11:41 37.59759 128.07576 20686 ft 482 kts 78°
2026-05-06 11:41 37.60401 128.11719 20999 ft 484 kts 78°
2026-05-06 11:41 37.61049 128.15915 21333 ft 486 kts 78°
2026-05-06 11:41 37.61690 128.20067 21611 ft 489 kts 78°
2026-05-06 11:42 37.62339 128.24293 21938 ft 491 kts 78°
2026-05-06 11:42 37.62991 128.28536 22239 ft 493 kts 78°
2026-05-06 11:42 37.63639 128.32759 22520 ft 495 kts 78°
2026-05-06 11:42 37.64291 128.37019 22812 ft 497 kts 78°
2026-05-06 11:43 37.64946 128.41312 23115 ft 499 kts 77°
2026-05-06 11:43 37.65603 128.45631 23405 ft 501 kts 77°
2026-05-06 11:43 37.66256 128.49910 23694 ft 502 kts 78°